Regional Weather Roundup
Issued by NWS State College, PA

Home | Current Version | Previous Version | Text Only | Print | Product List | Glossary On
Versions: 1 2 3 4 5 6 7 8 9 10 11 12 13 14 15 16 17 18 19 20 21 22 23 24 25 26 27 28 29 30 31 32 33 34 35 36 37 38 39 40 41 42 43 44 45 46 47 48 49 50
000
ASUS41 KCTP 210310
RWRCTP

REGIONAL WEATHER ROUNDUP
NATIONAL WEATHER SERVICE STATE COLLEGE PA
1100 PM EDT MON OCT 20 2014

Note: "fair" indicates few or no clouds below 12,000 feet with no
significant weather and/or obstructions to visibility.

* = STATION THAT DOES NOT REPORT PRECIPITATION /E.G. RAIN...SNOW...ETC/
    THUNDER OR FOG.

PAZ002>004-007>009-013>016-020>023-029>032-210400-
WESTERN PENNSYLVANIA

CITY           SKY/WX    TMP DP  RH WIND       PRES   REMARKS
ERIE           LGT RAIN  51  47  86 S13       29.82F
MEADVILLE      RAIN      48  46  93 S8        29.84S FOG
FRANKLIN*      CLOUDY    48  45  87 S9        29.87F
NEW CASTLE       N/A     50  48  92 CALM      29.87F
BEAVER COUNTY  NOT AVBL
BUTLER*        CLOUDY    48  45  87 S5        29.90S
PITTSBURGH INT LGT RAIN  51  46  83 S5        29.88S
PITTSBURGH     LGT RAIN  51  43  74 S9        29.88S
INDIANA*       CLOUDY    50  45  81 SW3       29.93S
LATROBE        LGT RAIN  54  46  76 S6        29.91S
WASHINGTON CO* MOCLDY    50  46  87 SW5       29.90S
$$

PAZ004>006-010>012-017>019-024>028-033>037-041-042-045-046-049>053-210400-
CENTRAL PENNSYLVANIA

CITY           SKY/WX    TMP DP  RH WIND       PRES   REMARKS
BRADFORD       LGT RAIN  46  43  89 S7        29.86F FOG
DUBOIS         CLOUDY    48  42  80 SW3       29.87F
CLEARFIELD     MOCLDY    46  40  79 N3        29.90S
JOHNSTOWN      CLOUDY    50  39  66 SW8       29.90S
ALTOONA        CLOUDY    49  42  77 SW5       29.91S
STATE COLLEGE  RAIN      50  40  68 W3        29.90S
WILLIAMSPORT   CLOUDY    53  40  61 NE3       29.90S
SELINSGROVE    CLOUDY    50  43  77 CALM      29.92F
FT INDIANTOWN  CLOUDY    51  51  99 N2        29.94F
CAPITAL CITY   CLOUDY    57  46  66 S9        29.92F
HARRISBURG     CLOUDY    54  47  77 S9        29.92F
YORK           CLOUDY    55  49  80 S6        29.93F
$$

PAZ038>040-043-044-047-048-054-055-060>062-067>071-210400-
EASTERN PENNSYLVANIA

CITY           SKY/WX    TMP DP  RH WIND       PRES   REMARKS
SCRANTON       CLOUDY    54  41  61 W6        29.92F
MOUNT POCONO   LGT RAIN  48  42  80 SW7       29.94F
ALLENTOWN      CLOUDY    54  42  64 SW5       29.96S
QUAKERTOWN*    CLOUDY    54  43  66 CALM      29.97S
READING        LGT RAIN  57  45  64 S6        29.95R
LANCASTER      LGT RAIN  56  48  74 S10       29.95S
COATESVILLE    CLOUDY    54  45  71 CALM      29.97S
POTTSTOWN      CLOUDY    54  43  66 SW5       29.97S
BLUE BELL      CLOUDY    55  45  67 S5        29.96S
DOYLESTOWN     CLOUDY    51  43  74 S5        29.96S
WILLOW GROVE   NOT AVBL
NORTH PHILA    CLOUDY    56  42  59 VRB3      29.99S
PHILADELPHIA   CLOUDY    56  43  61 S8        29.98S
$$



USA.gov is the U.S. government's official web portal to all federal, state and local government web resources and services.